Lihue, HI

1:08 AM HST on December 12, 2017 (GMT -1000)
Lihue

Weather History for PHLI - January, 2014

Change the Weather History Date:

Thursday, January 23, 2014

  Actual Average Record
Temperature  
Mean Temperature 66 °F 72 °F  
Max Temperature 75 °F 78 °F 83 °F (1986)
Min Temperature 56 °F 65 °F 51 °F (1969)
Degree Days  
Heating Degree Days 0 0  
Month to date heating degree days 0 0  
Since 1 July heating degree days 0 0  
Cooling Degree Days 1 7  
Month to date cooling degree days 152 161  
Year to date cooling degree days 152 161  
Growing Degree Days 14 (Base 50)    
Moisture  
Dew Point 53 °F    
Average Humidity 67    
Maximum Humidity 84    
Minimum Humidity 49    
Precipitation  
Precipitation 0.00 in 0.12 in 4.97 in (1972)
Month to date precipitation 1.09 2.83  
Year to date precipitation 1.09 2.83  
Snow  
Snow 0.00 in - - ()
Month to date snowfall 0.0  
Since 1 July snowfall 0.0  
Snow Depth 0.00 in    
Sea Level Pressure  
Sea Level Pressure 29.94 in    
Wind  
Wind Speed 6 mph (WNW)    
Max Wind Speed 10 mph    
Max Gust Speed 13 mph    
Visibility 10 miles    
Events      
T = Trace of Precipitation, MM = Missing Value Source: NWS Daily Summary

Daily Weather History Graph

Daily Weather History Graph

Search for Another Location

Airport or City:

Trip Planner

Search our weather history database for the weather conditions in past years. The results will help you decide how hot, cold, wet, or windy it might be!

Date:

Astronomy

Jan. 23, 2014 Rise Set
Actual Time 7:17 AM HST 6:20 PM HST
Civil Twilight 6:54 AM HST 6:44 PM HST
Nautical Twilight 6:27 AM HST 7:11 PM HST
Astronomical Twilight 6:00 AM HST 7:38 PM HST
Moon 12:10 AM HST (1/23) 11:56 AM HST (1/23)
Length of Visible Light 11h 50m
Length of Day
11h 02m
Waning Gibbous, 53% of the Moon is Illuminated
Jan 23
Waning Gibbous
Jan 23
Last Quarter
Jan 30
New
Feb 6
First Quarter
Feb 14
Full

Hourly Weather History & Observations

Time (HST) Temp. Dew Point Humidity Pressure Visibility Wind Dir Wind Speed Gust Speed Precip Events Conditions
12:53 AM 61.0 °F 51.1 °F 70% 29.93 in 10.0 mi WNW 6.9 mph - N/A   Overcast
1:53 AM 62.1 °F 52.0 °F 70% 29.93 in 10.0 mi NNW 6.9 mph - N/A   Overcast
2:53 AM 63.0 °F 52.0 °F 67% 29.92 in 10.0 mi North 8.1 mph - N/A   Overcast
3:53 AM 59.0 °F 51.1 °F 75% 29.91 in 10.0 mi WNW 4.6 mph - N/A   Clear
4:53 AM 57.9 °F 51.1 °F 78% 29.92 in 10.0 mi West 9.2 mph - N/A   Mostly Cloudy
5:53 AM 57.0 °F 51.1 °F 81% 29.93 in 10.0 mi WNW 8.1 mph - N/A   Clear
6:00 AM 57.2 °F 51.8 °F 82% 29.94 in 10.0 mi WNW 6.9 mph - N/A   Clear
6:09 AM 57.2 °F 51.8 °F 82% 29.93 in 10.0 mi West 6.9 mph - N/A   Clear
6:53 AM 57.0 °F 51.1 °F 81% 29.95 in 10.0 mi West 10.4 mph - N/A   Clear
7:53 AM 57.9 °F 52.0 °F 81% 29.98 in 10.0 mi West 9.2 mph - N/A   Clear
8:53 AM 63.0 °F 53.1 °F 70% 29.99 in 10.0 mi West 5.8 mph - N/A   Clear
9:53 AM 69.8 °F 53.6 °F 56% 29.99 in 10.0 mi WNW 6.9 mph - N/A   Clear
10:53 AM 73.4 °F 53.6 °F 50% 29.98 in 10.0 mi ENE 6.9 mph - N/A   Clear
11:53 AM - - N/A% - - North - - N/A   Unknown
12:53 PM 72.0 °F 55.9 °F 57% 29.91 in 10.0 mi ENE 6.9 mph - N/A   Overcast
1:53 PM 71.1 °F 55.0 °F 57% 29.89 in 10.0 mi Variable 4.6 mph - N/A   Overcast
2:53 PM 71.1 °F 53.1 °F 53% 29.89 in 10.0 mi SSW 3.5 mph - N/A   Overcast
3:53 PM 71.1 °F 55.0 °F 57% 29.91 in 10.0 mi NE 3.5 mph - N/A   Overcast
4:53 PM 71.1 °F 55.0 °F 57% 29.92 in 10.0 mi East 4.6 mph - N/A   Overcast
5:53 PM 69.1 °F 55.0 °F 61% 29.93 in 10.0 mi East 5.8 mph - N/A   Overcast
6:53 PM 66.9 °F 55.0 °F 66% 29.94 in 10.0 mi Calm Calm - N/A   Overcast
7:53 PM 63.0 °F 57.0 °F 81% 29.95 in 10.0 mi West 6.9 mph - N/A   Clear
8:53 PM 62.1 °F 55.9 °F 80% 29.97 in 10.0 mi West 6.9 mph - N/A   Mostly Cloudy
9:53 PM 61.0 °F 55.0 °F 81% 29.99 in 10.0 mi WNW 6.9 mph - N/A   Overcast
10:36 PM 60.8 °F 53.6 °F 77% 29.99 in 10.0 mi West 8.1 mph - N/A   Scattered Clouds
10:53 PM 59.0 °F 54.0 °F 83% 29.99 in 10.0 mi WSW 6.9 mph - N/A   Clear
11:53 PM 59.0 °F 54.0 °F 83% 29.97 in 10.0 mi West 6.9 mph - N/A   Mostly Cloudy